Weather History for Howell, MI

Change the Weather History Date:

Sunday, June 2, 2013

  Actual Average Record
Temperature  
Mean Temperature 60 °F -  
Max Temperature 68 °F 70 °F 89 °F (2007)
Min Temperature 52 °F 50 °F 42 °F (2003)
Degree Days  
Heating Degree Days 5    
Growing Degree Days 10 (Base 50)    
Moisture  
Dew Point 55 °F    
Average Humidity 77    
Maximum Humidity 93    
Minimum Humidity 66    
Precipitation  
Precipitation 0.00 in - - ()
Sea Level Pressure  
Sea Level Pressure 29.81 in    
Wind  
Wind Speed 10 mph (West)    
Max Wind Speed 21 mph    
Max Gust Speed 29 mph    
Visibility 10 miles    
Events Rain    
Averages and records for this station are not official NWS values.
T = Trace of Precipitation, MM = Missing Value Source: NWS Daily Summary

Daily Weather History Graph

Daily Weather History Graph

Search for Another Location

Airport:

Trip Planner

Search our weather history database for the weather conditions in past years. The results will help you decide how hot, cold, wet, or windy it might be!

Date:

Astronomy

Jun. 02, 2013 Rise Set
Actual Time 6:00 AM EDT 9:08 PM EDT
Civil Twilight 5:26 AM EDT 9:42 PM EDT
Nautical Twilight 4:42 AM EDT 10:26 PM EDT
Astronomical Twilight 3:49 AM EDT 11:19 PM EDT
Moon 2:33 AM EDT (6/2) 3:31 PM EDT (6/2)
Length of Visible Light 16h 16m
Length of Day
15h 07m
Waning Crescent, 31% of the Moon is Illuminated
Jun 2
Waning Crescent
Jun 8
New
Jun 16
First Quarter
Jun 23
Full
Jun 30
Last Quarter

Hourly Weather History & Observations

Time (EDT) Temp. Dew Point Humidity Pressure Visibility Wind Dir Wind Speed Gust Speed Precip Events Conditions
12:15 AM 66.6 °F 63.5 °F 90% 29.70 in 10.0 mi South 5.8 mph - N/A   Mostly Cloudy
12:35 AM 67.1 °F 63.5 °F 88% 29.69 in 10.0 mi SSW 6.9 mph - N/A   Overcast
12:55 AM 67.5 °F 63.5 °F 87% 29.69 in 10.0 mi South 3.5 mph - N/A   Overcast
1:15 AM 67.6 °F 63.7 °F 87% 29.68 in 10.0 mi South 4.6 mph - N/A   Overcast
1:34 AM 67.5 °F 63.7 °F 88% 29.68 in 10.0 mi South 6.9 mph - N/A   Overcast
1:55 AM 67.6 °F 63.9 °F 88% 29.67 in 10.0 mi SSW 5.8 mph - N/A   Overcast
2:15 AM 67.6 °F 63.7 °F 87% 29.67 in 10.0 mi SSW 8.1 mph - N/A   Overcast
2:34 AM 67.3 °F 63.5 °F 88% 29.67 in 10.0 mi WSW 6.9 mph - N/A   Mostly Cloudy
2:55 AM 67.1 °F 59.0 °F 75% 29.67 in 10.0 mi WSW 11.5 mph 20.7 mph N/A   Overcast
3:15 AM 65.7 °F 58.6 °F 78% 29.68 in 10.0 mi SW 9.2 mph - N/A Rain Light Rain
3:34 AM 65.3 °F 58.1 °F 77% 29.68 in 10.0 mi WSW 10.4 mph 17.3 mph N/A   Overcast
3:55 AM 65.1 °F 57.7 °F 77% 29.68 in 10.0 mi WSW 9.2 mph - N/A   Overcast
4:15 AM 64.4 °F 58.1 °F 80% 29.68 in 10.0 mi WSW 5.8 mph - N/A   Overcast
4:35 AM 64.4 °F 58.3 °F 80% 29.68 in 10.0 mi SW 5.8 mph - N/A   Overcast
4:55 AM 64.2 °F 59.2 °F 84% 29.68 in 10.0 mi SW 9.2 mph - N/A   Overcast
5:14 AM 64.2 °F 59.9 °F 86% 29.68 in 10.0 mi WSW 8.1 mph 16.1 mph N/A   Overcast
5:35 AM 64.0 °F 60.3 °F 87% 29.68 in 10.0 mi WSW 10.4 mph 18.4 mph N/A   Overcast
5:55 AM 63.3 °F 60.8 °F 91% 29.68 in 10.0 mi WSW 8.1 mph - N/A   Overcast
6:15 AM 63.0 °F 60.8 °F 93% 29.68 in 10.0 mi WSW 8.1 mph - N/A   Overcast
6:35 AM 63.1 °F 61.0 °F 93% 29.69 in 10.0 mi SW 11.5 mph - N/A   Overcast
6:55 AM 63.5 °F 60.6 °F 90% 29.70 in 10.0 mi WSW 9.2 mph - N/A   Overcast
7:15 AM 63.7 °F 60.4 °F 89% 29.70 in 10.0 mi WSW 10.4 mph 17.3 mph N/A   Overcast
7:35 AM 63.7 °F 60.1 °F 88% 29.71 in 10.0 mi WSW 13.8 mph 19.6 mph N/A   Overcast
7:55 AM 63.7 °F 59.4 °F 86% 29.72 in 10.0 mi WSW 13.8 mph 23.0 mph N/A   Overcast
8:15 AM 63.7 °F 59.2 °F 85% 29.73 in 10.0 mi WSW 18.4 mph 24.2 mph N/A   Overcast
8:35 AM 63.7 °F 58.6 °F 84% 29.74 in 10.0 mi West 15.0 mph 24.2 mph N/A   Overcast
8:54 AM 65.3 °F 59.2 °F 81% 29.74 in 10.0 mi West 17.3 mph - N/A   Mostly Cloudy
9:15 AM 66.2 °F 58.8 °F 77% 29.75 in 10.0 mi West 17.3 mph 23.0 mph N/A   Mostly Cloudy
9:34 AM 66.6 °F 59.7 °F 79% 29.75 in 10.0 mi WSW 17.3 mph - N/A   Overcast
9:55 AM 66.2 °F 58.8 °F 77% 29.75 in 10.0 mi West 19.6 mph 25.3 mph N/A   Overcast
10:15 AM 66.7 °F 59.4 °F 77% 29.75 in 10.0 mi West 20.7 mph 26.5 mph N/A   Overcast
10:34 AM 66.7 °F 58.3 °F 74% 29.77 in 10.0 mi West 18.4 mph 27.6 mph N/A   Overcast
10:55 AM 65.8 °F 57.9 °F 76% 29.77 in 10.0 mi West 17.3 mph 28.8 mph N/A   Overcast
11:15 AM 67.3 °F 57.6 °F 71% 29.78 in 10.0 mi West 16.1 mph 24.2 mph N/A   Mostly Cloudy
11:34 AM 67.3 °F 57.6 °F 71% 29.79 in 10.0 mi West 19.6 mph 25.3 mph N/A   Overcast
11:55 AM 68.2 °F 57.9 °F 70% 29.80 in 10.0 mi WNW 16.1 mph 21.9 mph N/A   Mostly Cloudy
12:15 PM 67.3 °F 58.5 °F 73% 29.81 in 10.0 mi West 16.1 mph 21.9 mph N/A   Mostly Cloudy
12:34 PM 65.7 °F 57.0 °F 74% 29.82 in 10.0 mi West 13.8 mph - N/A   Overcast
12:55 PM 66.7 °F 56.3 °F 69% 29.83 in 10.0 mi West 15.0 mph - N/A   Mostly Cloudy
1:15 PM 67.1 °F 56.3 °F 68% 29.83 in 10.0 mi West 12.7 mph - N/A   Mostly Cloudy
1:35 PM 66.6 °F 55.6 °F 68% 29.84 in 10.0 mi NW 13.8 mph 17.3 mph N/A   Mostly Cloudy
1:55 PM 67.1 °F 55.4 °F 66% 29.85 in 10.0 mi WNW 10.4 mph 18.4 mph N/A   Scattered Clouds
2:15 PM 65.3 °F 55.2 °F 70% 29.86 in 10.0 mi WNW 12.7 mph 19.6 mph N/A   Mostly Cloudy
2:35 PM 65.5 °F 54.7 °F 68% 29.87 in 10.0 mi West 15.0 mph 20.7 mph N/A   Overcast
2:55 PM 64.4 °F 54.1 °F 69% 29.87 in 10.0 mi WNW 12.7 mph 16.1 mph N/A   Mostly Cloudy
3:15 PM 63.7 °F 53.2 °F 69% 29.88 in 10.0 mi West 11.5 mph - N/A   Overcast
3:35 PM 63.1 °F 53.1 °F 70% 29.89 in 10.0 mi West 9.2 mph 19.6 mph N/A   Overcast
3:55 PM 62.4 °F 52.9 °F 71% 29.89 in 10.0 mi WNW 10.4 mph - N/A   Overcast
4:14 PM 61.7 °F 52.2 °F 71% 29.90 in 10.0 mi WNW 10.4 mph - N/A   Overcast
4:35 PM 60.4 °F 51.8 °F 73% 29.91 in 10.0 mi WNW 9.2 mph 16.1 mph N/A   Overcast
4:55 PM 60.1 °F 51.8 °F 74% 29.91 in 10.0 mi West 9.2 mph - N/A   Overcast
5:14 PM 59.4 °F 51.1 °F 74% 29.91 in 10.0 mi West 9.2 mph - N/A   Overcast
5:35 PM 59.4 °F 51.4 °F 75% 29.92 in 10.0 mi West 8.1 mph - N/A   Overcast
5:55 PM 59.0 °F 50.7 °F 74% 29.92 in 10.0 mi WNW 9.2 mph - N/A   Overcast
6:14 PM 59.0 °F 50.0 °F 72% 29.92 in 10.0 mi WNW 10.4 mph - N/A   Overcast
6:35 PM 58.5 °F 49.6 °F 72% 29.92 in 10.0 mi WNW 9.2 mph - N/A   Overcast
6:55 PM 57.7 °F 49.5 °F 74% 29.93 in 10.0 mi NW 10.4 mph - N/A   Overcast
7:15 PM 57.4 °F 49.1 °F 74% 29.93 in 10.0 mi NW 9.2 mph - N/A   Overcast
7:35 PM 57.2 °F 48.7 °F 73% 29.93 in 7.0 mi NNW 9.2 mph - N/A   Overcast
7:55 PM 56.7 °F 47.7 °F 72% 29.94 in 10.0 mi WNW 9.2 mph - N/A   Overcast
8:15 PM 56.5 °F 47.5 °F 72% 29.95 in 10.0 mi NW 10.4 mph - N/A   Overcast
8:35 PM 55.9 °F 46.8 °F 71% 29.95 in 10.0 mi NW 10.4 mph - N/A   Overcast
8:55 PM 55.8 °F 46.9 °F 72% 29.95 in 10.0 mi NNW 6.9 mph - N/A   Overcast
9:15 PM 55.2 °F 46.4 °F 72% 29.95 in 10.0 mi NNW 8.1 mph - N/A   Overcast
9:35 PM 54.7 °F 45.5 °F 71% 29.95 in 10.0 mi NNW 5.8 mph 17.3 mph N/A   Overcast
9:55 PM 53.6 °F 44.6 °F 72% 29.96 in 10.0 mi North 8.1 mph 19.6 mph N/A   Overcast
10:15 PM 53.1 °F 44.1 °F 71% 29.97 in 10.0 mi NNW 9.2 mph - N/A   Overcast
10:35 PM 53.1 °F 43.7 °F 71% 29.98 in 10.0 mi NNW 9.2 mph - N/A   Overcast
10:55 PM 52.7 °F 42.8 °F 69% 29.99 in 10.0 mi North 8.1 mph - N/A   Overcast
11:15 PM 52.7 °F 42.8 °F 69% 29.99 in 10.0 mi NNW 9.2 mph - N/A   Overcast
11:34 PM 52.3 °F 43.0 °F 70% 30.00 in 10.0 mi North 5.8 mph - N/A   Overcast
11:55 PM 52.0 °F 42.6 °F 70% 30.00 in 10.0 mi NNW 8.1 mph - N/A   Overcast